Location: Hamburg
(53.5554°N, 9.9941°E)
Time: 12:22:14
(UTC+01:00)

Envisat - Visible Passes

Search period start: 24 November 2017 00:00
Search period end: 04 December 2017 00:00
Orbit: 764 x 766 km, 98.2° (Epoch: 24 November)

Date Brightness Start Highest point End Pass type
(mag) Time Alt. Az. Time Alt. Az. Time Alt. Az.
24 Nov 4.5 18:24:47 19° NNE 18:24:47 19° NNE 18:26:58 10° N visible
24 Nov 5.0 20:04:59 21° NNW 20:04:59 21° NNW 20:06:41 10° NNW visible
25 Nov 4.8 17:47:42 14° NE 17:47:42 14° NE 17:49:22 10° NNE visible
25 Nov 4.6 19:27:55 24° N 19:27:55 24° N 19:29:55 10° N visible
25 Nov 5.9 21:08:07 11° NW 21:08:07 11° NW 21:08:28 10° NW visible
26 Nov 4.5 18:50:50 22° NNE 18:50:50 22° NNE 18:52:55 10° N visible
26 Nov 5.4 20:31:03 17° NNW 20:31:03 17° NNW 20:32:11 10° NNW visible
27 Nov 4.6 18:13:45 17° NNE 18:13:45 17° NNE 18:15:39 10° N visible
27 Nov 4.9 19:53:58 21° NNW 19:53:58 21° NNW 19:55:35 10° NNW visible
28 Nov 4.9 17:36:40 12° NE 17:36:40 12° NE 17:37:45 10° NNE visible
28 Nov 4.6 19:16:53 22° N 19:16:53 22° N 19:18:44 10° N visible
28 Nov 5.8 20:57:05 12° NW 20:57:05 12° NW 20:57:32 10° NNW visible
29 Nov 6.1 07:13:46 10° ENE 07:14:58 11° E 07:16:10 10° E visible
29 Nov 4.6 18:39:47 20° NNE 18:39:47 20° NNE 18:41:40 10° N visible
29 Nov 5.3 20:20:00 17° NNW 20:20:00 17° NNW 20:21:08 10° NNW visible
30 Nov 4.7 18:02:42 15° NNE 18:02:42 15° NNE 18:04:18 10° NNE visible
30 Nov 4.9 19:42:54 20° NNW 19:42:54 20° NNW 19:44:27 10° NNW visible
01 Dec 5.0 17:25:36 10° NE 17:25:36 10° NE 17:25:42 10° NE visible
01 Dec 4.7 19:05:49 21° N 19:05:49 21° N 19:07:32 10° N visible
01 Dec 5.7 20:46:01 13° NNW 20:46:01 13° NNW 20:46:32 10° NNW visible
02 Dec 4.7 18:28:42 18° NNE 18:28:42 18° NNE 18:30:24 10° N visible
02 Dec 5.3 20:08:55 17° NNW 20:08:55 17° NNW 20:10:03 10° NNW visible
03 Dec 4.8 17:51:36 13° NNE 17:51:36 13° NNE 17:52:52 10° NNE visible
03 Dec 4.9 19:31:48 20° N 19:31:48 20° N 19:33:17 10° N visible
